TimeEDT,TemperatureF,Dew PointF,Humidity,Sea Level PressureIn,VisibilityMPH,Wind Direction,Wind SpeedMPH,Gust SpeedMPH,PrecipitationIn,Events,Conditions,WindDirDegrees,DateUTC
12:53 AM,37.9,37.0,97,30.29,6.0,Calm,Calm,-,N/A,,Clear,0,2013-10-29 04:53:00
1:11 AM,39.2,37.4,93,30.28,1.5,Calm,Calm,-,N/A,,Clear,0,2013-10-29 05:11:00
1:13 AM,39.2,37.4,93,30.28,0.8,Calm,Calm,-,N/A,,Clear,0,2013-10-29 05:13:00
1:24 AM,37.4,35.6,93,30.28,0.8,Calm,Calm,-,N/A,,Mist,0,2013-10-29 05:24:00
1:32 AM,37.4,35.6,93,30.28,1.2,Calm,Calm,-,N/A,,Mostly Cloudy,0,2013-10-29 05:32:00
1:39 AM,37.4,37.4,100,30.28,0.8,Calm,Calm,-,N/A,,Mist,0,2013-10-29 05:39:00
1:53 AM,37.0,36.0,96,30.29,0.2,Calm,Calm,-,N/A,Fog,Fog,0,2013-10-29 05:53:00
2:09 AM,37.4,37.4,100,30.29,1.2,Calm,Calm,-,N/A,,Overcast,0,2013-10-29 06:09:00
2:14 AM,37.4,37.4,100,30.29,3.0,Calm,Calm,-,N/A,,Overcast,0,2013-10-29 06:14:00
2:32 AM,37.4,35.6,93,30.29,5.0,Calm,Calm,-,N/A,,Scattered Clouds,0,2013-10-29 06:32:00
2:43 AM,35.6,35.6,100,30.29,4.0,Calm,Calm,-,N/A,,Mostly Cloudy,0,2013-10-29 06:43:00
2:48 AM,35.6,35.6,100,30.29,2.0,Calm,Calm,-,N/A,,Mostly Cloudy,0,2013-10-29 06:48:00
2:53 AM,36.0,36.0,100,30.30,1.2,Calm,Calm,-,N/A,,Mostly Cloudy,0,2013-10-29 06:53:00
2:57 AM,35.6,35.6,100,30.29,0.8,Calm,Calm,-,N/A,,Overcast,0,2013-10-29 06:57:00
3:11 AM,35.6,35.6,100,30.29,1.5,Calm,Calm,-,N/A,,Overcast,0,2013-10-29 07:11:00
3:15 AM,35.6,35.6,100,30.30,3.0,Calm,Calm,-,N/A,,Overcast,0,2013-10-29 07:15:00
3:35 AM,37.4,37.4,100,30.30,2.0,Calm,Calm,-,N/A,,Overcast,0,2013-10-29 07:35:00
3:40 AM,37.4,37.4,100,30.29,0.8,Calm,Calm,-,N/A,,Mist,0,2013-10-29 07:40:00
3:53 AM,37.9,37.9,100,30.30,0.2,Calm,Calm,-,N/A,Fog,Fog,0,2013-10-29 07:53:00
4:53 AM,39.0,39.0,100,30.30,0.2,Calm,Calm,-,N/A,Fog,Fog,0,2013-10-29 08:53:00
5:53 AM,39.9,39.9,100,30.30,0.2,Calm,Calm,-,N/A,Fog,Fog,0,2013-10-29 09:53:00
6:53 AM,37.9,37.9,100,30.33,0.2,Calm,Calm,-,N/A,Fog,Fog,0,2013-10-29 10:53:00
7:53 AM,37.9,37.9,100,30.33,0.2,Calm,Calm,-,N/A,Fog,Fog,0,2013-10-29 11:53:00
8:53 AM,39.9,39.9,100,30.33,0.2,Calm,Calm,-,N/A,Fog,Fog,0,2013-10-29 12:53:00
9:53 AM,43.0,43.0,100,30.35,0.2,Calm,Calm,-,N/A,Fog,Fog,0,2013-10-29 13:53:00
10:53 AM,46.9,46.0,97,30.35,0.2,Calm,Calm,-,N/A,Fog,Fog,0,2013-10-29 14:53:00
11:25 AM,46.4,46.4,100,30.34,1.2,Calm,Calm,-,N/A,,Overcast,0,2013-10-29 15:25:00
11:43 AM,46.4,46.4,100,30.34,2.0,East,3.5,-,N/A,,Overcast,100,2013-10-29 15:43:00
11:51 AM,48.2,48.2,100,30.33,1.0,East,3.5,-,N/A,,Overcast,100,2013-10-29 15:51:00
11:53 AM,48.0,48.0,100,30.34,0.8,Calm,Calm,-,N/A,,Overcast,0,2013-10-29 15:53:00
12:37 PM,50.0,48.2,94,30.33,1.2,Calm,Calm,-,N/A,,Overcast,0,2013-10-29 16:37:00
12:47 PM,51.8,50.0,94,30.32,0.8,Calm,Calm,-,N/A,,Overcast,0,2013-10-29 16:47:00
12:53 PM,51.1,51.1,100,30.33,0.2,Calm,Calm,-,N/A,Fog,Fog,0,2013-10-29 16:53:00
1:15 PM,51.8,51.8,100,30.32,1.2,Calm,Calm,-,N/A,,Overcast,0,2013-10-29 17:15:00
1:26 PM,53.6,51.8,94,30.31,2.0,Calm,Calm,-,N/A,,Overcast,0,2013-10-29 17:26:00
1:40 PM,53.6,51.8,94,30.30,3.0,Calm,Calm,-,N/A,,Overcast,0,2013-10-29 17:40:00
1:53 PM,54.0,52.0,93,30.30,3.0,Calm,Calm,-,N/A,,Overcast,0,2013-10-29 17:53:00
2:53 PM,55.9,53.1,90,30.27,4.0,Calm,Calm,-,N/A,,Overcast,0,2013-10-29 18:53:00
3:05 PM,55.4,53.6,94,30.26,4.0,Calm,Calm,-,N/A,,Overcast,0,2013-10-29 19:05:00
3:34 PM,57.2,53.6,88,30.26,5.0,Calm,Calm,-,N/A,,Scattered Clouds,0,2013-10-29 19:34:00
3:53 PM,57.9,53.1,84,30.26,6.0,Calm,Calm,-,N/A,,Haze,0,2013-10-29 19:53:00
4:53 PM,57.0,53.1,87,30.26,6.0,Calm,Calm,-,N/A,,Clear,0,2013-10-29 20:53:00
5:53 PM,55.9,53.1,90,30.22,5.0,Calm,Calm,-,N/A,,Mostly Cloudy,0,2013-10-29 21:53:00
6:53 PM,54.0,52.0,93,30.22,5.0,Calm,Calm,-,N/A,,Overcast,0,2013-10-29 22:53:00
7:53 PM,55.0,53.1,93,30.20,5.0,East,3.5,-,N/A,,Overcast,90,2013-10-29 23:53:00
8:53 PM,54.0,53.1,97,30.22,5.0,Calm,Calm,-,N/A,,Overcast,0,2013-10-30 00:53:00
9:53 PM,54.0,53.1,97,30.22,4.0,Calm,Calm,-,0.00,,Overcast,0,2013-10-30 01:53:00
10:46 PM,55.4,53.6,94,30.22,3.0,Calm,Calm,-,0.02,Rain,Light Rain,0,2013-10-30 02:46:00
10:53 PM,54.0,54.0,100,30.22,3.0,Calm,Calm,-,0.03,Rain,Light Rain,0,2013-10-30 02:53:00
11:05 PM,53.6,53.6,100,30.22,2.5,Calm,Calm,-,0.01,Rain,Light Rain,0,2013-10-30 03:05:00
11:53 PM,55.0,55.0,100,30.20,3.0,ESE,3.5,-,0.03,,Overcast,110,2013-10-30 03:53:00
11:56 PM,55.4,55.4,100,30.19,2.5,ESE,3.5,-,0.01,,Overcast,110,2013-10-30 03:56:00